Tracking 17925 objects as of 22-January-2017
HD Live streaming from Space Station
objects crossing your sky now

SL-16 DEB

Track SL-16 DEB now!
10-day predictions


NORAD ID: 24300
Int'l Code: 1996-051D
Perigee: 846.2 km
Apogee: 1,138.7 km
Inclination: 71.0 °
Period: 104.8 minutes
Semi major axis: 7363 km
RCS: 0.0855 m2 (small)
Launch date: September 4, 1996
Source: Commonwealth of Independent States (former USSR) (CIS)
Launch site: TYURATAM MISSILE AND SPACE COMPLEX (TTMTR)

Note: This is SATELLITE DEBRIS
Your satellite tracking list
Your tracking list is empty





NASA's NSSDC Master Catalog

Two Line Element Set (TLE):
1 24300U 96051D   17022.21441541 -.00000051  00000-0 -64910-5 0  9997
2 24300  71.0300   1.0645 0198635 299.3018 155.0186 13.73983096 22001
Source of the keplerian elements: AFSPC